This is the latest recevied weather packets stored in our database for station/object F4THN-13. If no packets are shown the sender has not sent any weather packets the latest 10 day(s).
| Time | Temp. | Humidity | Pressure | Rain* | Wind** | Luminosity | Snow |
|---|---|---|---|---|---|---|---|
| 1777568812 | 21.11° C | 45% | 1018.2 hPa | 0 mm | - | - | - |
| 1777567312 | 21.67° C | 44% | 1018.1 hPa | 0 mm | - | - | - |
| 1777565812 | 22.22° C | 43% | 1017.9 hPa | 0 mm | - | - | - |
| 1777564311 | 22.78° C | 42% | 1017.7 hPa | 0 mm | - | - | - |
| 1777562811 | 22.78° C | 42% | 1017.5 hPa | 0 mm | - | - | - |
| 1777561311 | 23.33° C | 42% | 1017.4 hPa | 0 mm | - | - | - |
| 1777559811 | 23.89° C | 44% | 1017.4 hPa | 0 mm | - | - | - |
| 1777558311 | 24.44° C | 45% | 1017.4 hPa | 0 mm | - | - | - |
| 1777556811 | 24.44° C | 45% | 1017.5 hPa | 0 mm | - | - | - |
| 1777555311 | 24.44° C | 46% | 1017.5 hPa | 0 mm | - | - | - |
| 1777553811 | 24.44° C | 46% | 1017.5 hPa | 0 mm | - | - | - |
| 1777552310 | 24.44° C | 47% | 1017.5 hPa | 0 mm | - | - | - |
| 1777550810 | 23.89° C | 49% | 1017.7 hPa | 0 mm | - | - | - |
| 1777549310 | 22.78° C | 49% | 1017.7 hPa | 0 mm | - | - | - |
| 1777547810 | 22.78° C | 50% | 1018 hPa | 0 mm | - | - | - |
| 1777546310 | 22.22° C | 50% | 1017.9 hPa | 0 mm | - | - | - |
| 1777544809 | 22.22° C | 51% | 1018 hPa | 0 mm | - | - | - |
| 1777543309 | 21.11° C | 50% | 1018.1 hPa | 0 mm | - | - | - |
| 1777541809 | 20.56° C | 53% | 1018.3 hPa | 0 mm | - | - | - |
| 1777540309 | 20° C | 55% | 1018.2 hPa | 0 mm | - | - | - |
| 1777538809 | 19.44° C | 55% | 1018.2 hPa | 0 mm | - | - | - |
| 1777537309 | 18.89° C | 59% | 1018.1 hPa | 0 mm | - | - | - |
| 1777535808 | 18.33° C | 59% | 1018.2 hPa | 0 mm | - | - | - |
| 1777534308 | 17.22° C | 63% | 1018.1 hPa | 0 mm | - | - | - |
| 1777532808 | 16.11° C | 66% | 1017.9 hPa | 0 mm | - | - | - |
* Rain latest hour (hover to see other rain measurements)
** Current wind speed in m/s (hover to see current wind gust speed)